Location: Focicchia
(42.2496°N, 9.2935°E)
Time: 03:36:52
(UTC+00:00)

Cosmos 1455 - Pass Details

Date: 07 June 2020
Orbit: 499 x 522 km, 82.5° (Epoch: 07 July)

Event Time Altitude Azimuth Distance (km) Brightness Sun altitude
Rises 00:55:29 0° 336° (NNW) 2,600 6.4 -21.5°
Reaches altitude 10° 00:58:02 10° 318° (NW) 1,712 5.1 -21.3°
Enters shadow 00:59:56 18° 289° (WNW) 1,288 4.1 -21.1°
